TimeEST,TemperatureF,Dew PointF,Humidity,Sea Level PressureIn,VisibilityMPH,Wind Direction,Wind SpeedMPH,Gust SpeedMPH,PrecipitationIn,Events,Conditions,WindDirDegrees,DateUTC
12:10 AM,33.3,29.8,87,30.23,10.0,Calm,Calm,-,N/A,,Clear,0,2012-11-22 05:10:00
12:30 AM,33.1,29.3,86,30.23,10.0,Calm,Calm,-,N/A,,Clear,0,2012-11-22 05:30:00
12:50 AM,32.9,30.2,90,30.23,10.0,Calm,Calm,-,N/A,,Clear,0,2012-11-22 05:50:00
1:15 AM,32.4,29.3,88,30.23,10.0,Calm,Calm,-,N/A,,Clear,0,2012-11-22 06:15:00
1:35 AM,32.2,30.2,92,30.24,10.0,Calm,Calm,-,N/A,,Clear,0,2012-11-22 06:35:00
1:55 AM,32.0,29.8,92,30.24,10.0,Calm,Calm,-,N/A,,Clear,0,2012-11-22 06:55:00
2:15 AM,32.0,29.3,90,30.24,10.0,Calm,Calm,-,N/A,,Clear,0,2012-11-22 07:15:00
2:40 AM,31.5,29.3,92,30.24,7.0,Calm,Calm,-,N/A,,Clear,0,2012-11-22 07:40:00
3:00 AM,31.5,29.1,91,30.24,7.0,Calm,Calm,-,N/A,,Clear,0,2012-11-22 08:00:00
3:20 AM,31.3,29.1,92,30.24,7.0,Calm,Calm,-,N/A,,Clear,0,2012-11-22 08:20:00
3:45 AM,30.9,28.9,92,30.24,7.0,Calm,Calm,-,N/A,,Clear,0,2012-11-22 08:45:00
4:05 AM,30.9,28.9,92,30.24,7.0,Calm,Calm,-,N/A,,Clear,0,2012-11-22 09:05:00
4:45 AM,30.7,28.6,92,30.24,7.0,North,3.5,-,N/A,,Clear,10,2012-11-22 09:45:00
5:10 AM,31.6,29.8,93,30.24,7.0,Calm,Calm,-,N/A,,Clear,0,2012-11-22 10:10:00
5:30 AM,30.2,28.0,92,30.24,7.0,Calm,Calm,-,N/A,,Clear,0,2012-11-22 10:30:00
5:50 AM,30.2,28.4,93,30.24,7.0,Calm,Calm,-,N/A,,Clear,0,2012-11-22 10:50:00
6:10 AM,29.8,27.9,92,30.24,7.0,Calm,Calm,-,N/A,,Clear,0,2012-11-22 11:10:00
6:35 AM,30.2,28.4,93,30.25,5.0,Calm,Calm,-,N/A,,Clear,0,2012-11-22 11:35:00
6:55 AM,30.0,28.2,93,30.25,7.0,Calm,Calm,-,N/A,,Clear,0,2012-11-22 11:55:00
7:15 AM,29.3,27.3,92,30.26,7.0,Calm,Calm,-,N/A,,Clear,0,2012-11-22 12:15:00
7:35 AM,30.6,28.8,93,30.27,7.0,Calm,Calm,-,N/A,,Clear,0,2012-11-22 12:35:00
8:00 AM,32.0,29.3,90,30.28,7.0,Calm,Calm,-,N/A,,Clear,0,2012-11-22 13:00:00
8:20 AM,34.2,31.1,89,30.28,7.0,Calm,Calm,-,N/A,,Clear,0,2012-11-22 13:20:00
8:40 AM,37.4,32.5,83,30.27,10.0,Calm,Calm,-,N/A,,Clear,0,2012-11-22 13:40:00
9:00 AM,40.5,30.6,68,30.27,10.0,Calm,Calm,-,N/A,,Clear,0,2012-11-22 14:00:00
9:25 AM,45.3,31.6,59,30.28,10.0,Calm,Calm,-,N/A,,Clear,0,2012-11-22 14:25:00
9:45 AM,47.7,29.3,49,30.28,10.0,North,3.5,-,N/A,,Clear,360,2012-11-22 14:45:00
10:00 AM,48.7,29.1,47,30.28,10.0,North,3.5,-,N/A,,Clear,360,2012-11-22 15:00:00
10:25 AM,50.7,30.4,46,30.28,10.0,Calm,Calm,-,N/A,,Clear,0,2012-11-22 15:25:00
10:50 AM,52.9,28.8,40,30.28,10.0,Calm,Calm,-,N/A,,Clear,0,2012-11-22 15:50:00
11:10 AM,54.3,27.0,35,30.27,10.0,NNE,4.6,-,N/A,,Clear,20,2012-11-22 16:10:00
11:30 AM,55.2,27.1,34,30.26,10.0,North,5.8,-,N/A,,Clear,350,2012-11-22 16:30:00
11:50 AM,55.9,25.0,30,30.25,10.0,North,3.5,-,N/A,,Clear,360,2012-11-22 16:50:00
12:15 PM,56.5,24.8,30,30.24,10.0,Calm,Calm,-,N/A,,Clear,0,2012-11-22 17:15:00
12:35 PM,57.7,23.9,27,30.23,10.0,North,4.6,-,N/A,,Clear,360,2012-11-22 17:35:00
12:55 PM,58.3,22.3,25,30.22,10.0,NNE,3.5,-,N/A,,Clear,20,2012-11-22 17:55:00
1:15 PM,58.5,22.3,25,30.22,10.0,North,5.8,-,N/A,,Clear,360,2012-11-22 18:15:00
1:40 PM,59.0,21.7,24,30.21,10.0,North,4.6,-,N/A,,Clear,360,2012-11-22 18:40:00
2:00 PM,59.2,21.7,24,30.20,10.0,North,5.8,-,N/A,,Clear,10,2012-11-22 19:00:00
2:15 PM,59.2,21.2,23,30.20,10.0,NNE,4.6,-,N/A,,Clear,20,2012-11-22 19:15:00
2:40 PM,59.7,22.1,24,30.19,10.0,NNE,3.5,-,N/A,,Clear,30,2012-11-22 19:40:00
3:05 PM,59.5,21.7,23,30.19,10.0,Calm,Calm,-,N/A,,Clear,0,2012-11-22 20:05:00
3:25 PM,59.9,21.7,23,30.19,10.0,East,3.5,-,N/A,,Clear,80,2012-11-22 20:25:00
4:05 PM,59.2,21.0,23,30.20,10.0,Calm,Calm,-,N/A,,Clear,0,2012-11-22 21:05:00
4:30 PM,57.2,22.3,26,30.19,10.0,Calm,Calm,-,N/A,,Clear,0,2012-11-22 21:30:00
5:10 PM,50.4,28.4,43,30.19,10.0,Calm,Calm,-,N/A,,Clear,0,2012-11-22 22:10:00
5:30 PM,47.7,30.0,50,30.20,10.0,Calm,Calm,-,N/A,,Clear,0,2012-11-22 22:30:00
5:55 PM,45.1,32.0,60,30.20,10.0,Calm,Calm,-,N/A,,Clear,0,2012-11-22 22:55:00
6:15 PM,43.7,33.1,66,30.19,10.0,Calm,Calm,-,N/A,,Clear,0,2012-11-22 23:15:00
6:35 PM,43.0,34.0,71,30.19,10.0,Calm,Calm,-,N/A,,Clear,0,2012-11-22 23:35:00
6:55 PM,41.9,33.8,73,30.19,10.0,Calm,Calm,-,N/A,,Clear,0,2012-11-22 23:55:00
7:20 PM,40.6,32.4,72,30.19,10.0,Calm,Calm,-,N/A,,Clear,0,2012-11-23 00:20:00
7:40 PM,40.3,30.6,68,30.19,10.0,Calm,Calm,-,N/A,,Clear,0,2012-11-23 00:40:00
8:00 PM,39.9,30.2,68,30.19,10.0,Calm,Calm,-,N/A,,Clear,0,2012-11-23 01:00:00
8:20 PM,39.2,31.5,74,30.19,10.0,Calm,Calm,-,N/A,,Clear,0,2012-11-23 01:20:00
8:45 PM,38.3,31.8,77,30.18,10.0,Calm,Calm,-,N/A,,Clear,0,2012-11-23 01:45:00
9:05 PM,37.2,30.0,75,30.18,10.0,Calm,Calm,-,N/A,,Clear,0,2012-11-23 02:05:00
9:25 PM,37.2,32.2,82,30.18,10.0,Calm,Calm,-,N/A,,Clear,0,2012-11-23 02:25:00
9:45 PM,36.9,30.2,77,30.17,10.0,Calm,Calm,-,N/A,,Clear,0,2012-11-23 02:45:00
10:10 PM,36.0,29.8,78,30.17,10.0,Calm,Calm,-,N/A,,Clear,0,2012-11-23 03:10:00
10:30 PM,35.2,30.6,83,30.17,10.0,Calm,Calm,-,N/A,,Clear,0,2012-11-23 03:30:00
10:50 PM,35.2,30.0,81,30.17,10.0,Calm,Calm,-,N/A,,Clear,0,2012-11-23 03:50:00
11:10 PM,34.7,29.7,82,30.17,10.0,Calm,Calm,-,N/A,,Clear,0,2012-11-23 04:10:00
11:55 PM,33.8,29.7,85,30.16,10.0,Calm,Calm,-,N/A,,Clear,0,2012-11-23 04:55:00